Regional Weather Roundup
Issued by NWS

Home | Current Version | Previous Version | Text Only | Print | Product List | Glossary On
Versions: 1 2 3 4 5 6 7 8 9 10 11 12 13 14 15 16 17 18 19 20 21 22 23 24 25 26 27 28
000
ASUS43 KMPX 040410
RWRMN
WEATHER ROUNDUP FOR MINNESOTA
NATIONAL WEATHER SERVICE TWIN CITIES/CHANHASSEN MN
1000 PM CST SUN MAR 03 2024


NOTE: "FAIR" INDICATES FEW OR NO CLOUDS BELOW 12,000 FEET WITH NO
SIGNIFICANT WEATHER AND/OR OBSTRUCTIONS TO VISIBILITY. N/A MEANS
CURRENT SKY AND/OR WEATHER CONDITIONS ARE NOT AVAILABLE.

MNZ060>063-068>070-040500-
   Twin Cities Metro

CITY           SKY/WX    TMP DP  RH WIND       PRES   REMARKS
TWIN CITIES    CLEAR     43  29  57 W9        29.73R
ST PAUL        CLEAR     44  30  57 W9        29.74R
CRYSTAL        CLEAR     41  30  65 SW6       29.72R
BLAINE         CLEAR     43  30  61 SW8       29.72R
LAKEVILLE      CLEAR     39  30  70 SW5       29.77R
EDEN PRAIRIE   CLEAR     41  29  62 W7        29.72R
SOUTH ST PAUL  CLEAR     43  30  61 SW6       29.74R
LAKE ELMO      CLEAR     41  30  65 SW7       29.75R
$$
MNZ001>005-007-008-013>017-022>024-027-028-040500-
   Northwest Minnesota

CITY           SKY/WX    TMP DP  RH WIND       PRES   REMARKS
BEMIDJI        CLOUDY    30  22  72 SW15G31   29.51R WCI  19
HALLOCK        CLOUDY    27  25  93 SW32G40   29.29R WCI  10
ROSEAU         CLOUDY    28  27  93 SW29G38   29.32R WCI  13
WARROAD        CLOUDY    30  27  86 SW25G37   29.32R WCI  16
THIEF RVR FALL CLOUDY    27  22  81 SW33      29.45R WCI  10
CROOKSTON      CLOUDY    27  19  74 W24G39    29.51R WCI  12
FOSSTON        CLOUDY    27  19  74 W25G40    29.53R WCI  11
DETROIT LAKES  CLOUDY    27  19  74 W12G20    29.59R WCI  16
MOORHEAD       PTCLDY    27  19  74 W18G31    29.62R WCI  13
PARK RAPIDS    MOCLDY    30  32 100 W23G32    29.57R WCI  17
MAHNOMEN       CLOUDY    28  22  79 SW29      29.56R WCI  12
$$
MNZ006-009>011-018-025>026-040500-
   North Central Minnesota

CITY           SKY/WX    TMP DP  RH WIND       PRES   REMARKS
BAUDETTE       CLOUDY    36  27  69 SW21G38   29.36R
FLAG ISLAND    CLOUDY    34  30  86 SW18G24   29.29R WCI  23
INTL FALLS     CLOUDY    35  27  72 SW15G32   29.41R WCI  25
WASKISH        CLOUDY    34  27  75 SW18G35   29.45R WCI  23
BIG FORK       MOCLDY    36  30  80 SW14G23   29.54R
LONGVILLE      CLEAR     32  25  74 SW20G25   29.56R WCI  20
GRAND RAPIDS   MOCLDY    35  27  72 SW8       29.56R WCI  29
CRANE LAKE     CLOUDY    41  39  93 SW10G23   29.46R
ORR              N/A     37  34  87 SW17G23   29.45R
COOK           MOCLDY    37  32  81 SW16G24   29.48R
WALKER         MOCLDY    31  23  72 SW21G28   29.54R WCI  19
$$
MNZ012-019>021-037-040500-
   Northeast Minnesota

CITY           SKY/WX    TMP DP  RH WIND       PRES   REMARKS
DULUTH         PTCLDY    38  30  73 W15       29.56R
ELY            MOCLDY    43  41  93 SW14G23   29.47R
HIBBING        PTCLDY    35  29  78 SW7G20    29.52R WCI  29
EVELETH        PTCLDY    37  32  81 SW9G21    29.53R
DULUTH HARBOR  PTCLDY    39  37  93 SW15      29.58R
TWO HARBORS    MOCLDY    39  39 100 SW8       29.55R
GRAND MARAIS     N/A     42  38  85 E12G39    29.49R
G MARAIS ARPRT LGT RAIN  41  41 100 S9G20     29.46R
$$
MNZ029>031-032-039>041-046>048-054>057-064-040500-
   West Central Minnesota

CITY           SKY/WX    TMP DP  RH WIND       PRES   REMARKS
FERGUS FALLS   CLEAR     27  23  86 W14G22    29.66R WCI  15
WHEATON        CLEAR     30  19  64 W10G22    29.71R WCI  21
MORRIS         PTCLDY    30  23  74 W13       29.68R WCI  20
ALEXANDRIA     CLEAR     31  22  69 W20G29    29.68R WCI  19
ELBOW LAKE     PTCLDY    29  20  69 W15G21    29.69R WCI  18
WADENA         CLEAR     28  21  74 W22G28    29.62R WCI  15
GLENWOOD       PTCLDY    30  23  74 W18       29.69R WCI  18
APPLETON       CLEAR     34  25  69 W8        29.73R WCI  27
BENSON         PTCLDY    27  21  80 S7        29.73R WCI  19
ORTONVILLE     CLEAR     32  21  64 W17G28    29.71R WCI  21
MADISON        CLEAR     37  28  70 W14       29.75R
WILLMAR        CLEAR     32  23  69 W12       29.75R WCI  23
$$
MNZ033>034-036-042>043-049>051-058-059-040500-
   Central Minnesota

CITY           SKY/WX    TMP DP  RH WIND       PRES   REMARKS
ST CLOUD       CLEAR     37  26  64 SW13      29.69R
SAUK CENTRE    CLEAR     32  23  69 W15       29.69R WCI  22
PAYNESVILLE    CLEAR     32  23  69 W8        29.72R WCI  25
AITKIN         CLEAR     36  28  75 SW13G21   29.61R
PINE RIVER     CLEAR     34  25  69 SW12G22   29.63R WCI  25
BRAINERD       CLEAR     35  23  61 W15G40    29.61R WCI  25
STAPLES        CLEAR     34  21  60 W18G30    29.63R WCI  23
LONG PRAIRIE   CLEAR     32  23  69 W9G17     29.67R WCI  24
LITTLE FALLS   CLEAR     36  25  64 W10G20    29.66R
CAMP RIPLEY    CLEAR     36  22  57 W18G25    29.64R
LITCHFIELD     CLEAR     37  21  52 W7G17     29.73R
BUFFALO        MOCLDY    37  30  75 SW9       29.72R
MAPLE LAKE     CLEAR     37  27  67 W6        29.73R
HUTCHINSON     CLEAR     36  23  59 W8        29.75R
$$
MNZ037-044-045-052-053-040500-
   East Central Minnesota

CITY           SKY/WX    TMP DP  RH WIND       PRES   REMARKS
PRINCETON      CLEAR     39  28  65 W9        29.71R
MORA           CLEAR     36  30  80 SW8       29.70R
CAMBRIDGE      CLEAR     39  30  70 SW7       29.69R
RUSH CITY      MOCLDY    40  29  66 SW7       29.69R
MOOSE LAKE     CLEAR     37  30  75 SW9G16    29.63R
HINCKLEY       CLEAR     37  30  75 SW9       29.67R
CLOQUET        CLEAR     37  28  70 SW16G24   29.58R
MCGREGOR       CLEAR     36  30  80 SW9G18    29.61R
$$
MNZ071>073-080-081-089-090-097-098-040500-
   Southwest Minnesota

CITY           SKY/WX    TMP DP  RH WIND       PRES   REMARKS
MONTEVIDEO     CLEAR     36  25  64 SW7       29.76R
GRANITE FALLS  CLEAR     32  25  74 SW7       29.78R WCI  26
CANBY          CLEAR     36  26  67 SW10      29.75R
MARSHALL       CLEAR     32  25  75 SW8       29.77R WCI  25
REDWOOD FALLS  CLEAR     35  24  64 SW6       29.76R WCI  30
OLIVIA         CLEAR     28  23  80 SW6       29.76R WCI  22
WINDOM         CLEAR     30  25  80 CALM      29.77R
WORTHINGTON    CLEAR     34  24  67 SW5       29.77R WCI  30
JACKSON        CLEAR     32  27  80 S3        29.78R
TRACY          CLEAR     34  25  69 SW8       29.76R WCI  27
SLAYTON        CLEAR     34  23  62 SW8       29.77R WCI  28
$$
MNZ065>067-074>077-082>085-091>093-040500-
   South Central Minnesota

CITY           SKY/WX    TMP DP  RH WIND       PRES   REMARKS
MANKATO        CLEAR     39  29  67 S6        29.78R
NEW ULM        CLEAR     34  25  69 SW5       29.78R WCI  30
ST JAMES       CLEAR     34  28  80 S8        29.78R WCI  27
FAIRMONT       CLEAR     30  25  81 S7        29.80R WCI  23
GLENCOE        CLEAR     38  24  56 W9        29.74R
FARIBAULT      CLEAR     39  30  70 SW6       29.78R
OWATONNA       CLEAR     36  28  75 SW9       29.79R
WASECA         CLEAR     32  28  86 CALM      29.80R
ALBERT LEA     CLEAR     39  34  81 CALM      29.80R
$$
MNZ078>079-086>088-094>096-040500-
   Southeast Minnesota

CITY           SKY/WX    TMP DP  RH WIND       PRES   REMARKS
ROCHESTER      CLEAR     36  29  75 W9        29.79R
RED WING       CLEAR     43  30  61 CALM      29.76R
STANTON        CLEAR     40  32  73 S9        29.76S
DODGE CENTER   CLEAR     36  28  75 SW6       29.79R
WINONA         PTCLDY    48  30  49 W14G21    29.80R
AUSTIN         CLEAR     41  32  70 CALM      29.80R
PRESTON        CLEAR     41  34  75 W10       29.80R
$$
ABBREVIATIONS USED IN REMARKS
   TC - TEMPERATURES IN CELSIUS
  WCI - WIND CHILL INDEX
   HX - HEAT INDEX
  VSB - VISIBILITY
$$



USA.gov is the U.S. government's official web portal to all federal, state and local government web resources and services.